Location: Agadir Irigdalene
(31.2522°N, 8.7797°W)
Time: 14:53:38
(UTC+00:00)

FengYun 1-2 T - Pass Details

Date: 01 December 2020
Orbit: 847 x 880 km, 98.7° (Epoch: 25 January)

Event Time Altitude Azimuth Distance (km) Brightness Sun altitude
Rises 18:25:45 0° 165° (SSE) 3,428 7.4 -11.5°
Reaches altitude 10° 18:28:08 10° 165° (SSE) 2,490 6.7 -11.9°
Maximum altitude 18:33:40 87° 76° (ENE) 861 4.2 -13.1°
Drops below altitude 10° 18:39:11 10° 348° (NNW) 2,483 6.6 -14.2°
Sets 18:41:33 0° 348° (NNW) 3,418 7.3 -14.7°
